Location: Caltech
(34.1382°N, 118.1253°W)
Time: 06:18:38
(UTC-07:00)

Transit 2A - Visible Passes

Search period start: 05 July 2015 00:00
Search period end: 15 July 2015 00:00
Orbit: 595 x 965 km, 66.7° (Epoch: 04 July)

Date Brightness Start Highest point End Pass type
(mag) Time Alt. Az. Time Alt. Az. Time Alt. Az.
05 Jul 7.3 00:09:51 10° NNW 00:12:40 33° NW 00:12:40 33° NW visible
05 Jul 6.7 23:36:00 10° NNW 23:39:33 45° N 23:39:33 45° N visible
06 Jul 6.5 23:02:18 10° NNW 23:06:28 44° NE 23:06:28 44° NE visible
07 Jul 6.9 22:28:45 10° N 22:33:05 30° NE 22:33:26 30° ENE visible
08 Jul 8.0 00:12:21 10° NW 00:13:56 17° WNW 00:13:56 17° WNW visible
08 Jul 7.4 21:55:24 10° N 21:59:01 20° NE 22:00:25 18° ENE visible
08 Jul 7.3 23:38:01 10° NW 23:40:55 29° WNW 23:40:55 29° WNW visible
09 Jul 7.9 21:22:25 10° NNE 21:24:53 14° NE 21:27:27 10° E visible
09 Jul 6.3 23:03:56 10° NW 23:07:57 52° WNW 23:07:57 52° WNW visible
10 Jul 5.5 22:30:03 10° NNW 22:34:55 85° ENE 22:35:01 83° E visible
11 Jul 6.0 21:56:18 10° NNW 22:01:04 52° ENE 22:02:08 42° ESE visible
11 Jul 8.3 23:41:55 10° W 23:42:38 11° W 23:42:38 11° W visible
12 Jul 6.7 21:22:43 10° N 21:27:07 33° NE 21:29:17 22° ESE visible
12 Jul 7.6 23:06:38 10° WNW 23:09:48 19° WSW 23:09:48 19° WSW visible
13 Jul 7.3 20:49:18 10° N 20:53:05 22° NE 20:56:28 11° ESE visible
13 Jul 6.9 22:32:10 10° NW 22:36:22 31° WSW 22:37:00 30° SW visible
14 Jul 6.2 21:58:01 10° NW 22:02:39 51° WSW 22:04:14 34° SSW visible
